Time,TemperatureF,DewpointF,PressureIn,WindDirection,WindDirectionDegrees,WindSpeedMPH,WindSpeedGustMPH,Humidity,HourlyPrecipIn,Conditions,Clouds,dailyrainin,SoftwareType,DateUTC
2013-11-23 00:07:00,23.9,22.0,30.19,South,173,1.0,4.0,92,0.00,,,0.00,weatherlink.com 1.10,2013-11-23 05:07:00,
2013-11-23 00:22:00,25.5,23.0,30.20,West,273,1.0,5.0,90,0.00,,,0.00,weatherlink.com 1.10,2013-11-23 05:22:00,
2013-11-23 00:37:00,26.4,23.0,30.20,West,262,5.0,8.0,85,0.00,,,0.00,weatherlink.com 1.10,2013-11-23 05:37:00,
2013-11-23 00:52:00,26.3,22.0,30.19,West,259,3.0,9.0,85,0.00,,,0.00,weatherlink.com 1.10,2013-11-23 05:52:00,
2013-11-23 01:07:00,26.0,23.0,30.18,West,278,5.0,10.0,89,0.00,,,0.00,weatherlink.com 1.10,2013-11-23 06:07:00,
2013-11-23 01:22:00,25.9,24.0,30.19,West,281,3.0,15.0,92,0.00,,,0.00,weatherlink.com 1.10,2013-11-23 06:22:00,
2013-11-23 01:37:00,25.7,24.0,30.19,WSW,245,6.0,13.0,92,0.00,,,0.00,weatherlink.com 1.10,2013-11-23 06:37:00,
2013-11-23 01:52:00,25.4,22.0,30.18,West,261,5.0,19.0,86,0.00,,,0.00,weatherlink.com 1.10,2013-11-23 06:52:00,
2013-11-23 02:07:00,25.2,21.0,30.19,West,259,5.0,11.0,85,0.00,,,0.00,weatherlink.com 1.10,2013-11-23 07:07:00,
2013-11-23 02:22:00,24.6,21.0,30.19,West,273,6.0,18.0,87,0.00,,,0.00,weatherlink.com 1.10,2013-11-23 07:22:00,
2013-11-23 02:37:00,24.0,21.0,30.19,West,263,10.0,13.0,87,0.00,,,0.00,weatherlink.com 1.10,2013-11-23 07:37:00,
2013-11-23 02:52:00,23.8,20.0,30.19,West,263,6.0,19.0,86,0.00,,,0.00,weatherlink.com 1.10,2013-11-23 07:52:00,
2013-11-23 03:07:00,23.5,19.0,30.19,WNW,295,11.0,20.0,81,0.00,,,0.00,weatherlink.com 1.10,2013-11-23 08:07:00,
2013-11-23 03:23:00,22.8,17.0,30.18,NNW,327,5.0,15.0,79,0.00,,,0.00,weatherlink.com 1.10,2013-11-23 08:23:00,
2013-11-23 03:38:00,22.2,17.0,30.19,West,272,4.0,18.0,79,0.00,,,0.00,weatherlink.com 1.10,2013-11-23 08:38:00,
2013-11-23 03:53:00,21.7,17.0,30.19,West,278,12.0,19.0,81,0.00,,,0.00,weatherlink.com 1.10,2013-11-23 08:53:00,
2013-11-23 04:08:00,21.5,17.0,30.19,West,259,5.0,16.0,84,0.00,,,0.00,weatherlink.com 1.10,2013-11-23 09:08:00,
2013-11-23 04:23:00,20.8,18.0,30.19,NW,311,4.0,12.0,89,0.00,,,0.00,weatherlink.com 1.10,2013-11-23 09:23:00,
2013-11-23 04:38:00,20.5,18.0,30.20,WNW,297,1.0,12.0,91,0.00,,,0.00,weatherlink.com 1.10,2013-11-23 09:38:00,
2013-11-23 04:53:00,20.4,18.0,30.20,WNW,290,8.0,17.0,91,0.00,,,0.00,weatherlink.com 1.10,2013-11-23 09:53:00,
2013-11-23 05:08:00,20.1,18.0,30.20,WSW,250,7.0,13.0,91,0.00,,,0.00,weatherlink.com 1.10,2013-11-23 10:08:00,
2013-11-23 05:23:00,20.1,18.0,30.21,West,267,4.0,14.0,92,0.00,,,0.00,weatherlink.com 1.10,2013-11-23 10:23:00,
2013-11-23 05:38:00,20.1,18.0,30.21,NW,311,6.0,13.0,91,0.00,,,0.00,weatherlink.com 1.10,2013-11-23 10:38:00,
2013-11-23 05:53:00,19.5,18.0,30.22,WNW,299,9.0,15.0,92,0.00,,,0.00,weatherlink.com 1.10,2013-11-23 10:53:00,
2013-11-23 06:08:00,19.5,17.0,30.22,WNW,283,4.0,11.0,90,0.00,,,0.00,weatherlink.com 1.10,2013-11-23 11:08:00,
2013-11-23 06:23:00,18.7,17.0,30.23,WNW,294,5.0,14.0,92,0.00,,,0.00,weatherlink.com 1.10,2013-11-23 11:23:00,
2013-11-23 06:38:00,18.6,17.0,30.23,WNW,289,4.0,19.0,92,0.00,,,0.00,weatherlink.com 1.10,2013-11-23 11:38:00,
2013-11-23 06:53:00,18.3,15.0,30.24,WSW,250,3.0,20.0,87,0.00,,,0.00,weatherlink.com 1.10,2013-11-23 11:53:00,
2013-11-23 07:08:00,18.1,12.0,30.24,SW,226,5.0,20.0,77,0.00,,,0.00,weatherlink.com 1.10,2013-11-23 12:08:00,
2013-11-23 07:23:00,17.6,10.0,30.25,West,274,5.0,21.0,73,0.00,,,0.00,weatherlink.com 1.10,2013-11-23 12:23:00,
2013-11-23 07:38:00,16.5,13.0,30.25,WSW,245,8.0,16.0,86,0.00,,,0.00,weatherlink.com 1.10,2013-11-23 12:38:00,
2013-11-23 07:53:00,15.9,14.0,30.27,WNW,302,1.0,17.0,91,0.00,,,0.00,weatherlink.com 1.10,2013-11-23 12:53:00,
2013-11-23 08:08:00,15.2,13.0,30.27,North,354,10.0,20.0,90,0.00,,,0.00,weatherlink.com 1.10,2013-11-23 13:08:00,
2013-11-23 08:23:00,14.1,10.0,30.28,WNW,292,5.0,21.0,84,0.00,,,0.00,weatherlink.com 1.10,2013-11-23 13:23:00,
2013-11-23 08:39:00,14.1,9.0,30.29,North,357,7.0,22.0,81,0.00,,,0.00,weatherlink.com 1.10,2013-11-23 13:39:00,
2013-11-23 08:54:00,13.8,8.0,30.30,NNW,328,6.0,19.0,78,0.00,,,0.00,weatherlink.com 1.10,2013-11-23 13:54:00,
2013-11-23 09:09:00,13.6,7.0,30.31,NNW,347,10.0,20.0,76,0.00,,,0.00,weatherlink.com 1.10,2013-11-23 14:09:00,
2013-11-23 09:24:00,13.5,7.0,30.32,WNW,295,5.0,17.0,74,0.00,,,0.00,weatherlink.com 1.10,2013-11-23 14:24:00,
2013-11-23 09:39:00,13.4,6.0,30.33,NNW,335,7.0,18.0,71,0.00,,,0.00,weatherlink.com 1.10,2013-11-23 14:39:00,
2013-11-23 09:54:00,13.4,7.0,30.33,WNW,297,4.0,12.0,74,0.00,,,0.00,weatherlink.com 1.10,2013-11-23 14:54:00,
2013-11-23 10:09:00,13.1,6.0,30.34,WNW,287,5.0,21.0,72,0.00,,,0.00,weatherlink.com 1.10,2013-11-23 15:09:00,
2013-11-23 10:24:00,13.2,5.0,30.35,NW,305,2.0,14.0,71,0.00,,,0.00,weatherlink.com 1.10,2013-11-23 15:24:00,
2013-11-23 10:39:00,13.8,6.0,30.35,NW,315,4.0,15.0,72,0.00,,,0.00,weatherlink.com 1.10,2013-11-23 15:39:00,
2013-11-23 10:54:00,14.3,6.0,30.35,WNW,297,8.0,14.0,69,0.00,,,0.00,weatherlink.com 1.10,2013-11-23 15:54:00,
2013-11-23 11:09:00,14.3,6.0,30.36,NW,323,7.0,15.0,68,0.00,,,0.00,weatherlink.com 1.10,2013-11-23 16:09:00,
2013-11-23 11:24:00,14.9,6.0,30.35,North,5,8.0,11.0,68,0.00,,,0.00,weatherlink.com 1.10,2013-11-23 16:24:00,
2013-11-23 11:39:00,15.5,6.0,30.36,WNW,285,7.0,13.0,66,0.00,,,0.00,weatherlink.com 1.10,2013-11-23 16:39:00,
2013-11-23 11:54:00,15.2,5.0,30.36,NW,316,9.0,17.0,64,0.00,,,0.00,weatherlink.com 1.10,2013-11-23 16:54:00,
2013-11-23 12:09:00,15.8,6.0,30.35,WNW,287,6.0,11.0,64,0.00,,,0.00,weatherlink.com 1.10,2013-11-23 17:09:00,
2013-11-23 12:24:00,15.9,5.0,30.35,North,11,5.0,23.0,63,0.00,,,0.00,weatherlink.com 1.10,2013-11-23 17:24:00,
2013-11-23 12:39:00,16.0,6.0,30.34,WNW,302,4.0,23.0,64,0.00,,,0.00,weatherlink.com 1.10,2013-11-23 17:39:00,
2013-11-23 12:55:00,16.2,6.0,30.35,WNW,298,3.0,17.0,63,0.00,,,0.00,weatherlink.com 1.10,2013-11-23 17:55:00,
2013-11-23 13:09:00,16.5,6.0,30.35,WNW,287,10.0,18.0,63,0.00,,,0.00,weatherlink.com 1.10,2013-11-23 18:09:00,
2013-11-23 13:24:00,15.9,6.0,30.35,WNW,302,12.0,23.0,65,0.00,,,0.00,weatherlink.com 1.10,2013-11-23 18:24:00,
2013-11-23 13:39:00,15.6,6.0,30.36,WSW,245,7.0,17.0,66,0.00,,,0.00,weatherlink.com 1.10,2013-11-23 18:39:00,
2013-11-23 13:54:00,16.0,7.0,30.36,NNW,342,9.0,13.0,68,0.00,,,0.00,weatherlink.com 1.10,2013-11-23 18:54:00,
2013-11-23 14:09:00,16.0,8.0,30.36,West,274,5.0,20.0,72,0.00,,,0.00,weatherlink.com 1.10,2013-11-23 19:09:00,
2013-11-23 14:24:00,16.6,6.0,30.36,West,278,11.0,17.0,64,0.00,,,0.00,weatherlink.com 1.10,2013-11-23 19:24:00,
2013-11-23 14:39:00,15.8,5.0,30.38,NW,305,4.0,21.0,62,0.00,,,0.00,weatherlink.com 1.10,2013-11-23 19:39:00,
2013-11-23 14:54:00,15.8,6.0,30.38,ENE,68,5.0,16.0,64,0.00,,,0.00,weatherlink.com 1.10,2013-11-23 19:54:00,
2013-11-23 15:09:00,15.9,5.0,30.39,North,354,6.0,15.0,62,0.00,,,0.00,weatherlink.com 1.10,2013-11-23 20:09:00,
2013-11-23 15:24:00,15.6,5.0,30.40,NW,316,12.0,17.0,62,0.00,,,0.00,weatherlink.com 1.10,2013-11-23 20:24:00,
2013-11-23 15:39:00,14.9,4.0,30.40,North,356,7.0,20.0,63,0.00,,,0.00,weatherlink.com 1.10,2013-11-23 20:39:00,
2013-11-23 15:54:00,14.3,4.0,30.41,NNW,331,3.0,18.0,64,0.00,,,0.00,weatherlink.com 1.10,2013-11-23 20:54:00,
2013-11-23 16:09:00,13.7,5.0,30.42,NNE,23,3.0,14.0,67,0.00,,,0.00,weatherlink.com 1.10,2013-11-23 21:09:00,
2013-11-23 16:24:00,13.4,5.0,30.42,NNE,26,4.0,12.0,68,0.00,,,0.00,weatherlink.com 1.10,2013-11-23 21:24:00,
2013-11-23 16:39:00,13.2,5.0,30.42,NW,307,3.0,11.0,70,0.00,,,0.00,weatherlink.com 1.10,2013-11-23 21:39:00,
2013-11-23 16:54:00,13.0,6.0,30.43,WNW,291,4.0,10.0,72,0.00,,,0.00,weatherlink.com 1.10,2013-11-23 21:54:00,
2013-11-23 17:09:00,12.9,5.0,30.44,WNW,287,2.0,9.0,72,0.00,,,0.00,weatherlink.com 1.10,2013-11-23 22:09:00,
2013-11-23 17:25:00,12.8,5.0,30.44,NNW,339,3.0,5.0,72,0.00,,,0.00,weatherlink.com 1.10,2013-11-23 22:25:00,
2013-11-23 17:41:00,12.5,5.0,30.45,NNW,329,2.0,5.0,73,0.00,,,0.00,weatherlink.com 1.10,2013-11-23 22:41:00,
2013-11-23 17:55:00,12.4,6.0,30.45,WNW,294,0.0,9.0,74,0.00,,,0.00,weatherlink.com 1.10,2013-11-23 22:55:00,
2013-11-23 18:10:00,12.5,6.0,30.45,WNW,302,0.0,9.0,75,0.00,,,0.00,weatherlink.com 1.10,2013-11-23 23:10:00,
2013-11-23 18:25:00,12.4,6.0,30.46,WNW,302,1.0,4.0,76,0.00,,,0.00,weatherlink.com 1.10,2013-11-23 23:25:00,
2013-11-23 18:40:00,12.5,6.0,30.46,NW,314,1.0,8.0,76,0.00,,,0.00,weatherlink.com 1.10,2013-11-23 23:40:00,
2013-11-23 18:55:00,12.4,6.0,30.46,NNW,335,3.0,11.0,76,0.00,,,0.00,weatherlink.com 1.10,2013-11-23 23:55:00,
2013-11-23 19:10:00,12.2,6.0,30.47,WNW,300,4.0,12.0,76,0.00,,,0.00,weatherlink.com 1.10,2013-11-24 00:10:00,
2013-11-23 19:25:00,12.2,5.0,30.47,NNE,18,3.0,9.0,74,0.00,,,0.00,weatherlink.com 1.10,2013-11-24 00:25:00,
2013-11-23 19:40:00,11.8,5.0,30.47,North,9,1.0,9.0,75,0.00,,,0.00,weatherlink.com 1.10,2013-11-24 00:40:00,
2013-11-23 19:55:00,11.6,5.0,30.48,NNW,340,2.0,6.0,76,0.00,,,0.00,weatherlink.com 1.10,2013-11-24 00:55:00,
2013-11-23 20:10:00,11.4,6.0,30.48,NNW,327,1.0,5.0,77,0.00,,,0.00,weatherlink.com 1.10,2013-11-24 01:10:00,
2013-11-23 20:25:00,11.2,5.0,30.48,WNW,297,2.0,10.0,75,0.00,,,0.00,weatherlink.com 1.10,2013-11-24 01:25:00,
2013-11-23 20:40:00,11.5,3.0,30.48,North,11,1.0,15.0,68,0.00,,,0.00,weatherlink.com 1.10,2013-11-24 01:40:00,
2013-11-23 20:55:00,11.4,2.0,30.48,North,353,4.0,21.0,67,0.00,,,0.00,weatherlink.com 1.10,2013-11-24 01:55:00,
2013-11-23 21:10:00,11.3,3.0,30.48,NW,311,6.0,11.0,68,0.00,,,0.00,weatherlink.com 1.10,2013-11-24 02:10:00,
2013-11-23 21:25:00,11.3,3.0,30.48,WNW,299,6.0,9.0,68,0.00,,,0.00,weatherlink.com 1.10,2013-11-24 02:25:00,
2013-11-23 21:40:00,11.3,2.0,30.48,North,352,10.0,17.0,66,0.00,,,0.00,weatherlink.com 1.10,2013-11-24 02:40:00,
2013-11-23 21:55:00,11.5,2.0,30.48,WNW,302,1.0,15.0,65,0.00,,,0.00,weatherlink.com 1.10,2013-11-24 02:55:00,
2013-11-23 22:10:00,10.9,3.0,30.49,NNW,340,0.0,6.0,69,0.00,,,0.00,weatherlink.com 1.10,2013-11-24 03:10:00,
2013-11-23 22:25:00,10.4,3.0,30.49,NW,311,1.0,3.0,71,0.00,,,0.00,weatherlink.com 1.10,2013-11-24 03:25:00,
2013-11-23 22:40:00,9.9,3.0,30.49,West,278,1.0,5.0,72,0.00,,,0.00,weatherlink.com 1.10,2013-11-24 03:40:00,
2013-11-23 22:55:00,9.3,2.0,30.49,WSW,250,1.0,4.0,73,0.00,,,0.00,weatherlink.com 1.10,2013-11-24 03:55:00,
2013-11-23 23:10:00,8.5,2.0,30.49,WNW,285,1.0,5.0,74,0.00,,,0.00,weatherlink.com 1.10,2013-11-24 04:10:00,
2013-11-23 23:25:00,8.1,1.0,30.49,West,281,0.0,2.0,74,0.00,,,0.00,weatherlink.com 1.10,2013-11-24 04:25:00,
2013-11-23 23:40:00,7.2,1.0,30.49,WNW,287,0.0,1.0,77,0.00,,,0.00,weatherlink.com 1.10,2013-11-24 04:40:00,
2013-11-23 23:56:00,7.0,1.0,30.49,NNW,339,0.0,2.0,76,0.00,,,0.00,weatherlink.com 1.10,2013-11-24 04:56:00,